timestamp,surface_pressure_avg,surface_temp_avg,battery_voltage,lat,long
2022-11-10 00:09:00+00:00,352.8096,10.2,12.65,47.84626,-54.09684
2022-11-10 00:19:00+00:00,354.13800000000015,10.2,12.57,47.84626,-54.09684
2022-11-10 00:29:00+00:00,353.7112,10.2,12.57,47.84626,-54.09684
2022-11-10 00:39:00+00:00,354.1945,10.2,12.57,47.84626,-54.09684
2022-11-10 00:49:00+00:00,353.7613,10.2,12.57,47.84626,-54.09684
2022-11-10 00:59:00+00:00,353.0228,10.2,12.57,47.84626,-54.09684
2022-11-10 01:09:00+00:00,350.9562,10.2,12.57,47.84626,-54.09684
2022-11-10 01:19:01+00:00,349.5046,10.2,12.57,47.84626,-54.09684
2022-11-10 01:29:01+00:00,345.7247,10.22,12.57,47.84626,-54.09684
2022-11-10 01:39:01+00:00,342.8546,10.25,12.57,47.84626,-54.09684
2022-11-10 01:49:01+00:00,340.6497,10.27,12.57,47.84626,-54.09684
2022-11-10 01:59:01+00:00,336.5731,10.29,12.57,47.84626,-54.09684
2022-11-10 02:09:01+00:00,334.51800000000014,10.3,12.57,47.84626,-54.09684
2022-11-10 02:19:01+00:00,331.8781,10.3,12.57,47.84626,-54.09684
2022-11-10 02:29:01+00:00,327.228,10.3,12.57,47.84626,-54.09684
2022-11-10 02:39:01+00:00,322.3697,10.3,12.57,47.84626,-54.09684
2022-11-10 02:49:01+00:00,314.5881,10.26,12.57,47.84626,-54.09684
2022-11-10 02:59:01+00:00,306.348,10.2,12.57,47.84626,-54.09684
2022-11-10 03:09:01+00:00,299.303,10.2,12.57,47.84626,-54.09684
2022-11-10 03:19:00+00:00,294.0031,10.23,12.57,47.84626,-54.09684
2022-11-10 03:29:00+00:00,290.658,10.23,12.57,47.84626,-54.09684
2022-11-10 03:39:00+00:00,282.0831,10.21,12.57,47.84626,-54.09684
2022-11-10 03:49:00+00:00,270.3981,10.2,12.57,47.84626,-54.09684
2022-11-10 03:59:00+00:00,264.4915,10.2,12.57,47.84626,-54.09684
2022-11-10 04:09:00+00:00,262.8981,10.2,12.57,47.84626,-54.09684
2022-11-10 04:19:00+00:00,254.3148,10.21,12.57,47.84626,-54.09684
2022-11-10 04:29:00+00:00,241.3314,10.2,12.57,47.84626,-54.09684
2022-11-10 04:39:00+00:00,235.5898,10.2,12.57,47.84626,-54.09684
2022-11-10 04:49:00+00:00,228.2414,10.2,12.57,47.84626,-54.09684
2022-11-10 04:59:00+00:00,216.7831,10.2,12.57,47.84626,-54.09684
2022-11-10 05:09:00+00:00,210.6798,10.19,12.57,47.84626,-54.09684
2022-11-10 05:19:00+00:00,208.5665,10.19,12.57,47.84626,-54.09684
2022-11-10 05:29:00+00:00,204.3164,10.2,12.57,47.84626,-54.09684
2022-11-10 05:39:00+00:00,200.0565,10.18,12.57,47.84626,-54.09684
2022-11-10 05:49:00+00:00,199.4765,10.18,12.57,47.84626,-54.09684
2022-11-10 05:59:00+00:00,200.4365,10.19,12.57,47.84626,-54.09684
2022-11-10 06:09:00+00:00,198.2664,10.19,12.57,47.84626,-54.09684
2022-11-10 06:19:00+00:00,196.1548,10.1,12.57,47.84626,-54.09684
2022-11-10 06:29:00+00:00,200.2664,10.1,12.57,47.84626,-54.09684
2022-11-10 06:39:00+00:00,206.2648,10.0,12.57,47.84626,-54.09684
2022-11-10 06:49:00+00:00,206.2813,9.99,12.57,47.84626,-54.09684
2022-11-10 06:59:00+00:00,208.1764,9.9,12.57,47.84626,-54.09684
2022-11-10 07:09:00+00:00,213.0065,9.89,12.57,47.84626,-54.09684
2022-11-10 07:19:00+00:00,218.2831,9.8,12.49,47.84626,-54.09684
2022-11-10 07:29:00+00:00,220.1198,9.8,12.49,47.84626,-54.09684
2022-11-10 07:39:00+00:00,221.9348,9.8,12.49,47.84626,-54.09684
2022-11-10 07:49:00+00:00,227.6564,9.79,12.49,47.84626,-54.09684
2022-11-10 07:59:00+00:00,234.3764,9.79,12.49,47.84626,-54.09684
2022-11-10 08:09:00+00:00,236.9998,9.8,12.49,47.84626,-54.09684
2022-11-10 08:19:00+00:00,238.7181,9.8,12.49,47.84626,-54.09684
2022-11-10 08:29:00+00:00,245.9298,9.8,12.49,47.84626,-54.09684
2022-11-10 08:39:00+00:00,253.2664,9.8,12.49,47.84626,-54.09684
2022-11-10 08:49:00+00:00,257.8298,9.8,12.49,47.84626,-54.09684
2022-11-10 08:59:00+00:00,260.9114,9.8,12.49,47.84626,-54.09684
2022-11-10 09:09:00+00:00,267.4064,9.8,12.49,47.84626,-54.09684
2022-11-10 09:19:00+00:00,273.3564,9.8,12.49,47.84626,-54.09684
2022-11-10 09:29:00+00:00,274.9847,9.8,12.49,47.84626,-54.09684
2022-11-10 09:39:00+00:00,275.6097,9.8,12.49,47.84626,-54.09684
2022-11-10 09:49:00+00:00,286.9847,9.77,12.49,47.84626,-54.09684
2022-11-10 09:59:00+00:00,295.8414,9.7,12.49,47.84626,-54.09684
2022-11-10 10:09:00+00:00,298.6097,9.68,12.49,47.84626,-54.09684
2022-11-10 10:19:00+00:00,304.098,9.7,12.49,47.84626,-54.09684
2022-11-10 10:29:00+00:00,318.5146,9.69,12.49,47.84626,-54.09684
2022-11-10 10:39:00+00:00,328.6364,9.6,12.49,47.84626,-54.09684
2022-11-10 10:49:00+00:00,331.7146,9.7,12.49,47.84626,-54.09684
2022-11-10 10:59:00+00:00,338.0764,9.7,12.49,47.84626,-54.09684
2022-11-10 11:09:00+00:00,348.9929,9.7,12.49,47.84626,-54.09684
2022-11-10 11:19:00+00:00,352.1263,9.7,13.13,47.84626,-54.09684
2022-11-10 11:29:00+00:00,352.1497,9.77,13.13,47.84626,-54.09684
2022-11-10 11:39:00+00:00,355.24300000000005,9.78,13.13,47.84626,-54.09684
2022-11-10 11:49:00+00:00,353.1279,9.8,13.13,47.84626,-54.09684
2022-11-10 11:59:00+00:00,349.7979,9.8,13.13,47.84626,-54.09684
2022-11-10 12:09:00+00:00,354.8496,9.8,13.13,47.84626,-54.09684
2022-11-10 12:19:00+00:00,362.3913,9.77,12.81,47.84626,-54.09684
2022-11-10 12:29:00+00:00,361.4846,9.74,12.81,47.84626,-54.09684
2022-11-10 12:39:00+00:00,360.1013,9.71,12.81,47.84626,-54.09684
2022-11-10 12:49:00+00:00,365.7146,9.7,12.81,47.84626,-54.09684
2022-11-10 12:59:00+00:00,371.2245,9.7,12.81,47.84626,-54.09684
2022-11-10 13:09:00+00:00,369.6846,9.72,12.81,47.84626,-54.09684
2022-11-10 13:19:00+00:00,367.9547,9.71,12.73,47.84626,-54.09684
2022-11-10 13:29:00+00:00,369.1712,9.7,12.73,47.84626,-54.09684
2022-11-10 13:39:00+00:00,362.5463,9.71,12.73,47.84626,-54.09684
2022-11-10 13:49:00+00:00,355.9763,9.73,12.73,47.84626,-54.09684
2022-11-10 13:59:00+00:00,355.903,9.7,12.73,47.84626,-54.09684
2022-11-10 14:09:00+00:00,356.533,9.7,12.73,47.84626,-54.09684
2022-11-10 14:19:00+00:00,350.5863,9.7,12.65,47.84626,-54.09684
2022-11-10 14:29:00+00:00,344.7046,9.7,12.65,47.84626,-54.09684
2022-11-10 14:39:00+00:00,338.6346,9.7,12.65,47.84626,-54.09684
2022-11-10 14:49:00+00:00,336.7079,9.7,12.65,47.84626,-54.09684
2022-11-10 14:59:00+00:00,332.908,9.7,12.65,47.84626,-54.09684
2022-11-10 15:09:00+00:00,321.7064,9.7,12.65,47.84626,-54.09684
2022-11-10 15:19:00+00:00,314.0764,9.7,12.73,47.84626,-54.09684
2022-11-10 15:29:00+00:00,313.858,9.7,12.73,47.84626,-54.09684
2022-11-10 15:39:00+00:00,305.9264,9.77,12.73,47.84626,-54.09684
2022-11-10 15:49:00+00:00,291.1063,9.8,12.73,47.84626,-54.09684
2022-11-10 15:59:00+00:00,282.6564,9.8,12.73,47.84626,-54.09684
2022-11-10 16:09:00+00:00,280.013,9.8,12.73,47.84626,-54.09684
2022-11-10 16:19:00+00:00,269.3114,9.8,12.65,47.84626,-54.09684
2022-11-10 16:29:00+00:00,260.2148,9.8,12.65,47.84626,-54.09684
2022-11-10 16:39:00+00:00,253.9015,9.8,12.65,47.84626,-54.09684
2022-11-10 16:49:00+00:00,241.9798,9.8,12.65,47.84626,-54.09684
2022-11-10 16:59:00+00:00,228.1598,9.78,12.65,47.84626,-54.09684
2022-11-10 17:09:00+00:00,222.8265,9.76,12.65,47.84626,-54.09684
2022-11-10 17:19:00+00:00,222.3081,9.77,12.65,47.84626,-54.09684
2022-11-10 17:29:00+00:00,208.9948,9.75,12.65,47.84626,-54.09684
2022-11-10 17:39:00+00:00,196.1565,9.76,12.65,47.84626,-54.09684
2022-11-10 17:49:00+00:00,193.1982,9.75,12.65,47.84626,-54.09684
2022-11-10 17:59:00+00:00,187.5198,9.73,12.65,47.84626,-54.09684
2022-11-10 18:09:00+00:00,178.3115,9.7,12.65,47.84626,-54.09684
2022-11-10 18:19:00+00:00,176.3499,9.72,12.57,47.84626,-54.09684
2022-11-10 18:29:00+00:00,173.7681,9.72,12.57,47.84626,-54.09684
2022-11-10 18:39:00+00:00,168.2965,9.7,12.57,47.84626,-54.09684
2022-11-10 18:49:00+00:00,169.3731,9.7,12.57,47.84626,-54.09684
2022-11-10 18:59:00+00:00,172.1715,9.7,12.57,47.84626,-54.09684
2022-11-10 19:09:00+00:00,171.8265,9.7,12.57,47.84626,-54.09684
2022-11-10 19:19:01+00:00,173.3648,9.7,12.57,47.84626,-54.09684
2022-11-10 19:29:01+00:00,178.3798,9.7,12.57,47.84626,-54.09684
2022-11-10 19:39:01+00:00,177.9198,9.7,12.57,47.84626,-54.09684
2022-11-10 19:49:01+00:00,176.1181,9.7,12.57,47.84626,-54.09684
2022-11-10 19:59:01+00:00,181.0765,9.7,12.57,47.84626,-54.09684
2022-11-10 20:09:01+00:00,187.1331,9.7,12.57,47.84626,-54.09684
2022-11-10 20:19:00+00:00,190.3415,9.7,12.49,47.84626,-54.09684
2022-11-10 20:29:00+00:00,195.2898,9.7,12.49,47.84626,-54.09684
2022-11-10 20:39:00+00:00,200.5898,9.7,12.49,47.84626,-54.09684
2022-11-10 20:49:00+00:00,205.6765,9.7,12.49,47.84626,-54.09684
2022-11-10 20:59:00+00:00,204.8148,9.7,12.49,47.84626,-54.09684
2022-11-10 21:09:00+00:00,209.3298,9.7,12.49,47.84626,-54.09684
2022-11-10 21:19:00+00:00,221.8731,9.7,12.49,47.84626,-54.09684
2022-11-10 21:29:00+00:00,223.3414,9.7,12.49,47.84626,-54.09684
2022-11-10 21:39:00+00:00,227.1898,9.7,12.49,47.84626,-54.09684
2022-11-10 21:49:00+00:00,236.7598,9.7,12.49,47.84626,-54.09684
2022-11-10 21:59:00+00:00,240.7014,9.7,12.49,47.84626,-54.09684
2022-11-10 22:09:00+00:00,243.5948,9.7,12.49,47.84626,-54.09684
2022-11-10 22:19:00+00:00,249.8081,9.7,12.57,47.84626,-54.09684
2022-11-10 22:29:00+00:00,259.7247,9.7,12.57,47.84626,-54.09684
2022-11-10 22:39:00+00:00,263.4047,9.7,12.57,47.84626,-54.09684
2022-11-10 22:49:00+00:00,267.4847,9.7,12.57,47.84626,-54.09684
2022-11-10 22:59:00+00:00,270.5197,9.7,12.57,47.84626,-54.09684
2022-11-10 23:09:00+00:00,273.203,9.7,12.57,47.84626,-54.09684
2022-11-10 23:19:00+00:00,277.973,9.7,12.57,47.84626,-54.09684
2022-11-10 23:29:00+00:00,290.4113,9.7,12.57,47.84626,-54.09684
2022-11-10 23:39:00+00:00,302.9464,9.7,12.57,47.84626,-54.09684
2022-11-10 23:49:00+00:00,303.9997,9.7,12.57,47.84626,-54.09684
2022-11-10 23:59:00+00:00,306.4413,9.7,12.57,47.84626,-54.09684
